Weather History for Frenchville, ME

Change the Weather History Date:

Thursday, August 1, 2013

  Actual Average Record
Temperature  
Mean Temperature 67 °F 64 °F  
Max Temperature 79 °F 74 °F 84 °F (2001)
Min Temperature 55 °F 55 °F 45 °F (1998)
Degree Days  
Heating Degree Days 0    
Month to date heating degree days 0  
Since 1 July heating degree days 51  
Cooling Degree Days 2    
Month to date cooling degree days 2  
Year to date cooling degree days 116  
Growing Degree Days 16 (Base 50)    
Moisture  
Dew Point 56 °F    
Average Humidity 78    
Maximum Humidity 100    
Minimum Humidity 46    
Precipitation  
Precipitation 0.00 in 0.12 in 0.90 in (2008)
Month to date precipitation 0.00 0.12  
Year to date precipitation 17.65 18.18  
Sea Level Pressure  
Sea Level Pressure 29.96 in    
Wind  
Wind Speed 8 mph (SSE)    
Max Wind Speed 18 mph    
Max Gust Speed 25 mph    
Visibility 8 miles    
Events Fog    
T = Trace of Precipitation, MM = Missing Value Source: NWS Daily Summary

Daily Weather History Graph

Daily Weather History Graph

Search for Another Location

Airport:

Trip Planner

Search our weather history database for the weather conditions in past years. The results will help you decide how hot, cold, wet, or windy it might be!

Date:

Astronomy

Aug. 01, 2013 Rise Set
Actual Time 5:11 AM EDT 8:06 PM EDT
Civil Twilight 4:36 AM EDT 8:41 PM EDT
Nautical Twilight 3:50 AM EDT 9:27 PM EDT
Astronomical Twilight 2:55 AM EDT 10:21 PM EDT
Moon 12:44 AM EDT (8/1) 4:14 PM EDT (8/1)
Length of Visible Light 16h 05m
Length of Day
14h 54m
Waning Crescent, 23% of the Moon is Illuminated
Aug 1
Waning Crescent
Aug 6
New
Aug 14
First Quarter
Aug 20
Full
Aug 28
Last Quarter

Hourly Weather History & Observations

Time (EDT) Temp. Dew Point Humidity Pressure Visibility Wind Dir Wind Speed Gust Speed Precip Events Conditions
12:53 AM 59.0 °F 55.0 °F 87% 29.99 in 10.0 mi WSW 5.8 mph - N/A   Clear
1:53 AM 57.0 °F 55.0 °F 93% 29.99 in 10.0 mi WSW 6.9 mph - N/A   Clear
2:53 AM 57.9 °F 54.0 °F 87% 29.99 in 10.0 mi Calm Calm - N/A   Clear
3:53 AM 57.9 °F 55.0 °F 90% 29.99 in 10.0 mi Calm Calm - N/A   Clear
4:53 AM 55.9 °F 54.0 °F 93% 29.99 in 10.0 mi SSE 5.8 mph - N/A   Clear
5:53 AM 55.9 °F 55.0 °F 97% 29.99 in 6.0 mi Calm Calm - N/A   Clear
6:22 AM 55.4 °F 55.4 °F 100% 30.00 in 2.5 mi Calm Calm - N/A   Scattered Clouds
6:24 AM 57.2 °F 55.4 °F 94% 30.00 in 1.2 mi ESE 3.5 mph - N/A   Scattered Clouds
6:31 AM 57.2 °F 55.4 °F 94% 30.00 in 0.2 mi ESE 3.5 mph - N/A Fog Fog
6:51 AM 57.2 °F 55.4 °F 94% 30.00 in 1.8 mi SE 4.6 mph - N/A   Mostly Cloudy
6:53 AM 55.9 °F 55.9 °F 100% 30.00 in 2.5 mi SE 4.6 mph - N/A   Mostly Cloudy
7:04 AM 57.2 °F 55.4 °F 94% 30.01 in 3.0 mi SE 4.6 mph - N/A   Overcast
7:08 AM 55.4 °F 55.4 °F 100% 30.01 in 1.2 mi SE 3.5 mph - N/A   Overcast
7:15 AM 55.4 °F 55.4 °F 100% 30.01 in 0.2 mi SE 3.5 mph - N/A Fog Fog
7:33 AM 57.2 °F 57.2 °F 100% 30.01 in 1.8 mi South 4.6 mph - N/A   Mostly Cloudy
7:38 AM 57.2 °F 57.2 °F 100% 30.01 in 8.0 mi South 5.8 mph - N/A   Scattered Clouds
7:53 AM 59.0 °F 57.0 °F 93% 30.01 in 10.0 mi SSE 3.5 mph - N/A   Partly Cloudy
8:53 AM 64.0 °F 59.0 °F 84% 30.01 in 10.0 mi South 3.5 mph - N/A   Clear
9:53 AM 69.1 °F 60.1 °F 73% 30.00 in 10.0 mi SSE 5.8 mph - N/A   Clear
10:53 AM 73.0 °F 60.1 °F 64% 29.98 in 10.0 mi SSE 5.8 mph - N/A   Clear
11:53 AM 77.0 °F 59.0 °F 54% 29.97 in 10.0 mi SSE 11.5 mph - N/A   Scattered Clouds
12:53 PM 78.1 °F 57.0 °F 48% 29.95 in 10.0 mi SSE 10.4 mph - N/A   Partly Cloudy
1:53 PM 78.1 °F 57.0 °F 48% 29.92 in 10.0 mi SE 9.2 mph - N/A   Clear
2:53 PM 77.0 °F 55.9 °F 48% 29.91 in 10.0 mi SSE 11.5 mph - N/A   Scattered Clouds
3:53 PM 78.1 °F 57.0 °F 48% 29.89 in 10.0 mi SSE 11.5 mph - N/A   Partly Cloudy
4:53 PM 78.1 °F 55.9 °F 46% 29.88 in 10.0 mi SSE 12.7 mph - N/A   Partly Cloudy
5:53 PM 77.0 °F 55.9 °F 48% 29.87 in 10.0 mi SSE 15.0 mph 23.0 mph N/A   Clear
6:53 PM 73.9 °F 55.9 °F 53% 29.88 in 10.0 mi SSE 11.5 mph - N/A   Clear
7:53 PM 72.0 °F 57.0 °F 59% 29.87 in 10.0 mi SSE 10.4 mph - N/A   Clear
8:53 PM 70.0 °F 57.9 °F 65% 29.88 in 10.0 mi South 9.2 mph - N/A   Clear
9:53 PM 68.0 °F 57.0 °F 68% 29.87 in 10.0 mi SSE 10.4 mph - N/A   Clear
10:53 PM 66.0 °F 57.0 °F 73% 29.86 in 10.0 mi SSE 10.4 mph - N/A   Clear
11:53 PM 64.0 °F 55.9 °F 75% 29.85 in 10.0 mi SSE 9.2 mph - N/A   Clear